2025-274F (66655 NORAD) Tracking and Keplerian Element Data

This shows tracking and keplerian element data for the satellite.

Feedback or suggestion? Click here.




ElementValue
Catalog66655
Name2025-274F
Epoch Orbit349
Epoch Day354.06183763
Epoch Year2025
RAAN281.1157
Inclination97.7331
Eccentricity0.0004875
Argument of Perigee359.1533
Mean Anonmoly0.9677
Mean Motion14.91177812
Decay Rate-6.9E-07
L11 66655U 25274F 25354.06183763 -.00000069 00000+0 -13969-5 0 9990
L22 66655 97.7331 281.1157 0004875 359.1533 0.9677 14.91177812 3494



Live tracking and technical data element details for 2025-274F (NORAD 66655). 2025-274F can be tracked NOW for your location showing map with azimuth and elevation plus other details from your city location.







IsCatalogInMostPopularTable: catalog: 66655, numindb: 11
Update: records affected: 1



GetName: 66655 2025-274F

Hit Count: updated at: Sat, 11 Apr 2026 21:16:40 GMT